星链-31423 (STARLINK-31423 )

导读 | 豆包AI

STARLINK-31423是美国SpaceX星链互联网卫星星座的一员,于2024年3月16日发射,旨在为全球提供低延迟、高速率的宽带互联网服务。作为星链批量发射组网的卫星之一,它依托低轨轨道部署,增强星座覆盖能力,服务包括偏远地区、移动载体等多场景网络接入需求,推进星链全球组网进程。

基本信息
目录编号:
59242
目录名称:
STARLINK-31423
国际标识:
2024-049M
轨道中心:
EARTH
卫星名称:
星链-31423
卫星全名:
星链-31423 (STARLINK-31423 )
卫星状态:
在轨 (已飞行776 天)
发射日期:
2024-03-16 UTC
国别 :
美国 (US)
星等 :
--
轨道信息
数据来源 国际轨道数据
星历时间: 2026-04-30T22:38:15+0800
9小时前
查看轨道信息
半长轴: 6861.196km
偏心率: 0.0000936
轨道倾角: 42.998°
近地点辐角 295.072°
升交点赤经 210.567°
平近点角 65.004°
近地点: 482.416km
远地点: 483.702km
周期: 94.267分钟
每日圈数: 15.27577
详细信息
固有亮度:
5
最大亮度:
0.3
卫星平台:
Starlink v2.0 mini
覆盖范围:
全球
运营商:
太空探索技术公司
运营商所在国:
美国
制造商(研发单位):
太空探索技术公司
制造商所在国:
美国
使用方式:
暂无
卫星简介
星链(Starlink)计划是由太空探索技术公司(SpaceX)提出的一个巨型低轨卫星互联网星座项目,计划在2019年至2024年间在太空搭建由约1.2万颗卫星组成的“星链”网络,其中1584颗将部署在地球上空550千米处的近地轨道,并从2020年开始工作。该卫星仍在工作。
2D轨道图
3D轨道图
轨道高度分析图
轨道倾角分析图
轨道综合分析图
查看轨道综合分析图